User: anonymous   Login
Location: Fishcreek Rd Observing Site
(41.1865°N, 81.4271°W)
Time: 09:30:48
(UTC-04:00)
Language:

Iridium 45 - Orbit

View from above orbital plane
View from above orbital plane
View from above satellite
View from above satellite

Ground track
Ground track

The orbit data is extracted from the following two-line orbital elements,

1 25104U 97082A   17082.73497261 +.00000147 +00000-0 +45384-4 0  9995
2 25104 086.3964 322.9678 0001509 113.0287 247.1068 14.34220491007863
Epoch (UTC): 23 March 2017 17:38:21
Eccentricity: 0.0001509
inclination: 86.3964°
perigee height: 776 km
apogee height: 779 km
right ascension of ascending node: 322.9678°
argument of perigee: 113.0287°
revolutions per day: 14.34220491
mean anomaly at epoch: 247.1068°
orbit number at epoch: 786

The dashed part of the orbit path shows where the satellite is in the earth's shadow,  

DLR